Change the Weather History Date:

Wednesday, May 1, 2013

  Actual Average (KLBT) Record (KLBT)
Temperature  
Mean Temperature 60 °F 66 °F  
Max Temperature 66 °F 79 °F 90 °F (2007)
Min Temperature 55 °F 53 °F 42 °F (2006)
Degree Days  
Heating Degree Days 4 3  
Month to date heating degree days 3  
Since 1 July heating degree days 2732  
Cooling Degree Days 0 3  
Month to date cooling degree days 3  
Year to date cooling degree days 71  
Growing Degree Days 10 (Base 50)    
Moisture  
Dew Point 57 °F    
Average Humidity 86    
Maximum Humidity 100    
Minimum Humidity 75    
Precipitation  
Precipitation 0.01 in 0.06 in 0.95 in (1999)
Month to date precipitation 0.06  
Year to date precipitation 12.08  
Sea Level Pressure  
Sea Level Pressure 30.21 in    
Wind  
Wind Speed 10 mph (NE)    
Max Wind Speed 17 mph    
Max Gust Speed 24 mph    
Visibility 10 miles    
Events      
T = Trace of Precipitation, MM = Missing Value Source: NWS Daily Summary

Daily Weather History Graph

Daily Weather History Graph

Search for Another Location

Airport or City:

Trip Planner

Search our weather history database for the weather conditions in past years. The results will help you decide how hot, cold, wet, or windy it might be!

Date:

Astronomy

May. 01, 2013 Rise Set
Actual Time 6:26 AM EDT 8:02 PM EDT
Civil Twilight 5:59 AM EDT 8:29 PM EDT
Nautical Twilight 5:27 AM EDT 9:02 PM EDT
Astronomical Twilight 4:53 AM EDT 9:36 PM EDT
Moon 1:10 AM EDT (5/1) 12:03 PM EDT (5/1)
Length of Visible Light 14h 30m
Length of Day
13h 36m
Waning Gibbous, 59% of the Moon is Illuminated
May 1
Waning Gibbous
May 2
Last Quarter
May 9
New
May 18
First Quarter
May 25
Full

Hourly Weather History & Observations

Time (EDT) Temp. Dew Point Humidity Pressure Visibility Wind Dir Wind Speed Gust Speed Precip Events Conditions
12:52 AM 57.0 °F 55.0 °F 93% 30.16 in 10.0 mi NNE 8.1 mph - N/A   Clear
1:52 AM 55.0 °F 54.0 °F 96% 30.15 in 10.0 mi NNE 5.8 mph - N/A   Clear
2:52 AM 55.9 °F 54.0 °F 93% 30.14 in 10.0 mi NNE 8.1 mph - N/A   Clear
3:27 AM 55.4 °F 55.4 °F 100% 30.15 in 10.0 mi NE 6.9 mph - N/A   Mostly Cloudy
3:52 AM 57.0 °F 55.0 °F 93% 30.15 in 10.0 mi NE 15.0 mph 19.6 mph N/A   Overcast
4:52 AM 57.9 °F 55.0 °F 90% 30.15 in 10.0 mi NE 6.9 mph - N/A   Overcast
5:19 AM 57.2 °F 55.4 °F 94% 30.16 in 10.0 mi NE 9.2 mph - N/A   Overcast
5:52 AM 57.9 °F 55.0 °F 90% 30.17 in 10.0 mi NNE 9.2 mph - N/A   Overcast
6:52 AM 57.9 °F 55.0 °F 90% 30.19 in 10.0 mi NNE 6.9 mph - N/A   Overcast
7:52 AM 59.0 °F 55.9 °F 90% 30.19 in 10.0 mi NNE 9.2 mph - N/A   Overcast
8:07 AM 59.0 °F 55.4 °F 88% 30.19 in 10.0 mi NE 9.2 mph - N/A   Overcast
8:52 AM 60.1 °F 57.0 °F 90% 30.19 in 10.0 mi NNE 12.7 mph - N/A   Overcast
9:07 AM 60.8 °F 55.4 °F 82% 30.20 in 10.0 mi NE 11.5 mph - N/A   Overcast
9:52 AM 61.0 °F 57.0 °F 87% 30.21 in 10.0 mi NE 11.5 mph 20.7 mph N/A   Overcast
10:52 AM 63.0 °F 57.9 °F 84% 30.23 in 10.0 mi ENE 8.1 mph - N/A   Overcast
11:45 AM 64.4 °F 57.2 °F 77% 30.23 in 10.0 mi NE 16.1 mph 21.9 mph 0.00 in   Overcast
11:52 AM 64.9 °F 57.0 °F 75% 30.24 in 10.0 mi NE 17.3 mph 23.0 mph 0.00 in   Overcast
12:52 PM 64.9 °F 57.0 °F 75% 30.22 in 10.0 mi ENE 16.1 mph - N/A   Overcast
1:52 PM 66.0 °F 57.9 °F 75% 30.22 in 10.0 mi NE 13.8 mph 24.2 mph N/A   Overcast
2:52 PM 64.0 °F 57.0 °F 78% 30.23 in 10.0 mi NE 12.7 mph - N/A   Overcast
3:52 PM 64.9 °F 57.0 °F 75% 30.22 in 10.0 mi NE 13.8 mph - N/A   Overcast
4:02 PM 64.4 °F 57.2 °F 77% 30.22 in 10.0 mi ENE 13.8 mph - N/A   Overcast
4:52 PM 64.0 °F 57.0 °F 78% 30.22 in 10.0 mi ENE 11.5 mph - N/A   Overcast
5:35 PM 64.4 °F 57.2 °F 77% 30.22 in 10.0 mi ENE 13.8 mph - N/A   Overcast
5:52 PM 64.0 °F 57.0 °F 78% 30.22 in 10.0 mi NNE 15.0 mph - N/A   Overcast
6:09 PM 64.4 °F 57.2 °F 77% 30.22 in 10.0 mi NE 15.0 mph - N/A   Mostly Cloudy
6:52 PM 63.0 °F 57.0 °F 81% 30.22 in 10.0 mi NE 12.7 mph - N/A   Partly Cloudy
7:52 PM 62.1 °F 57.0 °F 84% 30.22 in 10.0 mi NE 10.4 mph - N/A   Overcast
8:29 PM 62.6 °F 57.2 °F 82% 30.23 in 10.0 mi NE 9.2 mph - N/A   Overcast
8:52 PM 60.1 °F 59.0 °F 96% 30.25 in 5.0 mi NE 12.7 mph - 0.00 in   Overcast
9:03 PM 60.8 °F 59.0 °F 94% 30.25 in 10.0 mi NE 10.4 mph - N/A   Overcast
9:52 PM 59.0 °F 59.0 °F 100% 30.27 in 6.0 mi NNE 9.2 mph - N/A   Overcast
10:52 PM 59.0 °F 59.0 °F 100% 30.26 in 6.0 mi NE 10.4 mph - 0.01 in   Overcast
11:52 PM 60.1 °F 59.0 °F 96% 30.25 in 8.0 mi NE 9.2 mph - N/A   Overcast